User: anonymous   Login
Location: Nebula Knoll Observatory
(43.6666°N, 71.0000°W)
Time: 06:15:35
(UTC-04:00)
Language:

Cosmos 1782 - Orbit

View from above orbital plane
View from above orbital plane
View from above satellite
View from above satellite

Ground track
Ground track

The orbit data is extracted from the following two-line orbital elements,

1 16986U 86074A   16271.80607794  .00000612  00000-0  39656-4 0  9995
2 16986  82.5099  16.4143 0012364 151.4839 208.7068 15.06264622631354
Epoch (UTC): 27 September 2016 19:20:45
Eccentricity: 0.0012364
inclination: 82.5099°
perigee height: 539 km
apogee height: 556 km
right ascension of ascending node: 16.4143°
argument of perigee: 151.4839°
revolutions per day: 15.06264622
mean anomaly at epoch: 208.7068°
orbit number at epoch: 63135

The dashed part of the orbit path shows where the satellite is in the earth's shadow,  

DLR